Regional Weather Roundup
Issued by NWS

Home | Current Version | Previous Version | Graphics & Text | Print | Product List | Glossary On
Versions: 1 2 3 4 5 6 7 8 9 10 11 12 13 14 15 16 17 18 19 20 21 22 23 24 25 26 27 28 29 30 31 32 33 34 35 36 37 38 39 40 41 42 43 44 45 46 47 48 49 50
000
ASUS43 KMKX 272200
RWRWI

WISCONSIN REGIONAL WEATHER ROUNDUP
NATIONAL WEATHER SERVICE MILWAUKEE/SULLIVAN WI
400 PM CST SAT DEC 27 2014

NOTE: "FAIR" INDICATES FEW OR NO CLOUDS BELOW 12,000 FEET WITH NO
SIGNIFICANT WEATHER AND/OR OBSTRUCTIONS TO VISIBILITY.

WIZ001-002-006>008-014>016-023>028-272300-
NORTHWEST WISCONSIN

CITY           SKY/WX    TMP DP  RH WIND       PRES   REMARKS
SUPERIOR ARPT  CLEAR     27   9  47 W7        30.01S WCI  19
ASHLAND        CLEAR     22  14  71 SW6       30.00R WCI  14
HAYWARD        CLEAR     23  12  62 W5        30.00R WCI  17
SIREN          CLEAR     25  11  55 W10       30.03S WCI  14
CUMBERLAND     CLEAR     21  12  68 W9        30.02R WCI  11
RICE LAKE      CLEAR     22  14  71 W6        30.05R WCI  15
CHETEK         CLEAR     22  15  74 W7        30.03F WCI  14
LADYSMITH      CLOUDY    25  20  80 W13       30.02R WCI  14
EAU CLAIRE     PTCLDY    22  15  75 W7        30.05R WCI  13
MENOMONIE      PTCLDY    24  16  70 W8        30.05S WCI  16
NEW RICHMOND   CLEAR     24  15  69 W9        30.06S WCI  14
OSCEOLA        CLEAR     26  13  59 W6        30.08F WCI  19
$$

WIZ003>005-009-010-017-018-272300-
NORTH CENTRAL WISCONSIN

CITY           SKY/WX    TMP DP  RH WIND       PRES   REMARKS
MANITOWISH WTR CLOUDY    24  23  96 NW6       29.93R WCI  17
ARBOR VITAE    CLOUDY    27  24  89 NW9       29.92R WCI  17
WOODRUFF       CLOUDY    27  24  89 NW9       29.92R WCI  17
RHINELANDER    CLOUDY    27  22  81 NW8       29.91R WCI  19
EAGLE RIVER    MOCLDY    27  22  81 NW9       29.89R WCI  18
LAND O LAKES   CLOUDY    28  25  90 NW5       29.90R WCI  22
PHILLIPS       CLOUDY    24  20  87 W8        29.96R WCI  15
TOMAHAWK       CLOUDY    27  23  86 W12       29.94R WCI  16
MEDFORD        CLOUDY    25  22  85 NW9       29.96R WCI  16
MERRILL        CLOUDY    29  25  83 NW8       29.94R WCI  21
$$

WIZ029-030-035-036-043>047-272300-
CENTRAL WISCONSIN

CITY           SKY/WX    TMP DP  RH WIND       PRES   REMARKS
WAUSAU         CLOUDY    29  24  82 W10       29.95R WCI  20
MOSINEE        CLOUDY    28  27  93 NW15      29.96R WCI  17
MARSHFIELD     CLOUDY    27  21  78 NW18      29.99R WCI  14
STEVENS POINT  CLOUDY    29  26  88 W12       29.97R WCI  19
WAUPACA        CLOUDY    35  31  83 W9        29.94R WCI  28
WAUTOMA        NOT AVBL
WISC RAPIDS    CLOUDY    29  23  78 NW12      30.01R WCI  19
CAMP DOUGLAS   NOT AVBL
$$

WIZ011>013-019>022-031-037>040-048>050-272300-
NORTHEAST WISCONSIN

CITY           SKY/WX    TMP DP  RH WIND       PRES   REMARKS
ANTIGO         CLOUDY    30  27  90 NW12      29.90R WCI  20
SHAWANO        CLOUDY    34  33  96 W7        29.92R WCI  28
OCONTO         CLOUDY    33  33 100 NW6       29.91R WCI  27
STURGEON BAY   CLOUDY    34  30  86 NW8       29.91R WCI  27
GREEN BAY      CLOUDY    35  32  88 NW10      29.93R WCI  27
MANITOWOC      NOT AVBL
APPLETON       CLOUDY    34  32  93 W13G21    29.93R WCI  25
CLINTONVILLE   CLOUDY    34  32  93 W7        29.93R WCI  28
OSHKOSH        CLOUDY    33  29  85 W10       29.95R WCI  25
$$

WIZ032>034-041-042-053>061-272300-
SOUTHWEST WISCONSIN

CITY           SKY/WX    TMP DP  RH WIND       PRES   REMARKS
LA CROSSE      CLOUDY    28  22  78 W10       30.08R WCI  19
SPARTA         CLOUDY    29  24  83 W8        30.05S WCI  21
VIROQUA        CLOUDY    27  27  99 W10G17    30.03R WCI  17
BOSCOBEL       MOCLDY    32  23  69 W7        30.09R WCI  26
PRAIRIE DU CHI CLOUDY    30  23  74 W14       30.09R WCI  20
PLATTEVILLE    CLOUDY    31  27  84 W7G16     30.07R WCI  25
$$

WIZ056-057-062-063-064-067-068-272300-
SOUTH CENTRAL WISCONSIN

CITY           SKY/WX    TMP DP  RH WIND       PRES   REMARKS
REEDSBURG      CLOUDY    30  26  84 W15       30.02R WCI  19
BARABOO/DELLS  CLOUDY    31  27  84 W8        30.01R WCI  23
LONE ROCK      NOT AVBL
MINERAL POINT  CLOUDY    32  28  86 W9        30.03R WCI  24
MADISON        CLOUDY    33  27  78 W7        30.02R WCI  27
MIDDLETON      CLOUDY    33  29  82 W14       30.02R WCI  24
WATERTOWN      CLOUDY    33  28  81 W15G23    29.99R WCI  23
MONROE         CLOUDY    32  28  86 W13G22    30.03R WCI  22
JANESVILLE     CLOUDY    34  28  80 W16       30.02R WCI  23
$$

WIZ051-052-058>065-066-070>072-272300-
SOUTHEAST WISCONSIN

CITY           SKY/WX    TMP DP  RH WIND       PRES   REMARKS
MILWAUKEE      CLOUDY    36  28  73 W20G25    29.99R WCI  25
WAUKESHA       CLOUDY    32  27  80 W14G23    29.99R WCI  22
MILWAUKEE/TIMM CLOUDY    36  27  69 W17G29    29.98R WCI  25
RACINE         CLOUDY    36  28  73 W18G28    30.01R WCI  26
BURLINGTON     CLOUDY    32  28  83 W13G24    30.01R WCI  23
KENOSHA        CLOUDY    36  29  75 W15G23    30.01R WCI  27
FOND DU LAC    CLOUDY    33  28  81 W15G22    29.96R WCI  23
SHEBOYGAN      CLOUDY    35  29  78 W18G30    29.94R WCI  24
WEST BEND      CLOUDY    34  28  80 W10G22    29.96R WCI  26
JUNEAU         CLOUDY    32  28  83 W12G18    29.99R WCI  23
$$

LSZ147-162-272300-
LAKE SUPERIOR

STATION/POSITION TIME  TEMP    WIND        PRES    WAVE
                       AIR SEA DIR/SP/G            HT/PER
                 (UTC) (F)     (DEG/KT/KT) (MB)    (FT/S)
DEVILS ISLAND    2100   25     260/ 16/ 20 1015.9R
PORT WING        2140   26     230/  9/ 17 1016.3R
SAXON HARBOR     2100   26     240/  3/  9 1015.6R
$$

LMZ867-665-643>646-272300-
LAKE MICHIGAN

STATION/POSITION TIME  TEMP    WIND        PRES    WAVE
                       AIR SEA DIR/SP/G            HT/PER
                 (UTC) (F)     (DEG/KT/KT) (MB)    (FT/S)
CHAMBERS ISLAND  2100   33     300/  7/ 10 1011.2R
NORTHPORT PIER   2100   33     300/  8/ 18 1010.8R
SISTER BAY       2113          330/ 15/ 17   N/A
ALGOMA LAKESHORE 2115          330/ 12/ 17   N/A
KEWAUNEE LAKESHO 2100   34     310/  9/ 15 1010.3R
SHEBOYGAN LAKESH 2100   36 39  270/ 25/ 32 1013.3R
PORT WASHINGTON  2114   36     270/ 14/ 25 1014.9R
MILWAUKEE LAKESH 2100   38     260/ 16/ 21   N/A
KENOSHA   LAKESH 2100   37     260/ 22/ 32 1015.6R
$$

TC  - TEMPERATURE IN CELSIUS
VSB - VISIBILITY IN STATUTE MILES
WCI - WIND CHILL INDEX
HX  - HEAT INDEX



USA.gov is the U.S. government's official web portal to all federal, state and local government web resources and services.